This is the latest recevied weather packets stored in our database for station/object OE6CUD-6. If no packets are shown the sender has not sent any weather packets the latest 10 day(s).
| Time | Temp. | Humidity | Pressure | Rain* | Wind** | Luminosity | Snow |
|---|---|---|---|---|---|---|---|
| 1777437301 | 11.67° C | 65% | 1019 hPa | 0 mm | - | 9 W/m² | - |
| 1777435923 | 11.67° C | 67% | 1018.8 hPa | 0 mm | - | 0 W/m² | - |
| 1777433826 | 11.67° C | 68% | 1018.6 hPa | 0 mm | - | 0 W/m² | - |
| 1777432923 | 11.67° C | 66% | 1018.6 hPa | 0 mm | - | 0 W/m² | - |
| 1777431421 | 11.67° C | 68% | 1018.5 hPa | 0 mm | - | 0 W/m² | - |
| 1777428691 | 12.22° C | 64% | 1018.7 hPa | 0 mm | - | 0 W/m² | - |
| 1777427791 | 12.22° C | 64% | 1018.6 hPa | 0 mm | - | 0 W/m² | - |
| 1777427191 | 12.22° C | 64% | 1018.6 hPa | 0 mm | - | 0 W/m² | - |
| 1777425841 | 12.78° C | 65% | 1018.6 hPa | 0 mm | - | 0 W/m² | - |
| 1777420809 | 13.33° C | 63% | 1018.7 hPa | 0 mm | - | 0 W/m² | - |
| 1777418389 | 14.44° C | 61% | 1018.8 hPa | 0 mm | - | 0 W/m² | - |
| 1777415371 | 13.89° C | 70% | 1018.7 hPa | 0 mm | - | 0 W/m² | - |
| 1777413542 | 14.44° C | 67% | 1018.5 hPa | 0 mm | - | 0 W/m² | - |
| 1777411742 | 14.44° C | 64% | 1018.5 hPa | 0 mm | - | 0 W/m² | - |
| 1777410238 | 14.44° C | 80% | 1018.3 hPa | 0 mm | - | 0 W/m² | - |
| 1777409912 | 14.44° C | 80% | 1018.3 hPa | 0 mm | - | 0 W/m² | - |
| 1777408415 | 14.44° C | 76% | 1018.2 hPa | 0 mm | - | 0 W/m² | - |
| 1777407811 | 14.44° C | 76% | 1018.1 hPa | 0 mm | - | 0 W/m² | - |
| 1777407209 | 14.44° C | 74% | 1018.1 hPa | 0 mm | - | 0 W/m² | - |
| 1777406310 | 15° C | 72% | 1018 hPa | 0 mm | - | 0 W/m² | - |
| 1777404199 | 15° C | 70% | 1018 hPa | 0 mm | - | 0 W/m² | - |
| 1777403282 | 15.56° C | 69% | 1017.8 hPa | 0 mm | - | 0 W/m² | - |
| 1777401011 | 16.67° C | 62% | 1017.4 hPa | 0 mm | - | 0 W/m² | - |
| 1777399488 | 16.67° C | 59% | 1017.3 hPa | 0 mm | - | 0 W/m² | - |
| 1777398727 | 17.22° C | 58% | 1017.2 hPa | 0 mm | - | 0 W/m² | - |
* Rain latest hour (hover to see other rain measurements)
** Current wind speed in m/s (hover to see current wind gust speed)